EW8454 Weather Reports


Display with metric or nautical units.
time (UTC)temp
F
wind
direction
speed
MPH
gust
MPH
rain 1hr
in
rain 24hr
in
rain mn
in
humidity
%
barometer
mb
20200713135541 71 127 2.0 5.0 0.00 0.06 0.00 55 1013.0
20200713135031 71 127 2.0 5.0 0.00 0.06 0.00 55 1013.0
20200713134531 71 46 0.0 2.0 0.00 0.06 0.00 55 1013.0
20200713134033 71 62 0.0 2.0 0.00 0.06 0.00 55 1013.0
20200713133528 71 130 0.0 2.0 0.00 0.06 0.00 55 1013.0
20200713133026 67 263 0.0 2.0 0.00 0.06 0.00 61 1013.0
20200713132525 67 271 0.0 2.0 0.00 0.06 0.00 60 1013.0
20200713132021 67 223 0.0 0.0 0.00 0.06 0.00 60 1013.0
20200713131523 66 55 0.0 0.0 0.00 0.06 0.00 64 1013.0
20200713131012 66 319 0.0 0.0 0.00 0.06 0.00 64 1012.6
20200713130513 66 346 0.0 0.0 0.00 0.06 0.00 62 1013.0
20200713130018 66 261 0.0 0.0 0.00 0.06 0.00 64 1013.0
20200713125510 66 252 0.0 0.0 0.00 0.06 0.00 67 1013.0
20200713125007 66 254 0.0 0.0 0.00 0.06 0.00 74 1013.0
20200713124508 66 253 0.0 0.0 0.00 0.06 0.00 76 1013.0
20200713124017 66 255 0.0 0.0 0.00 0.06 0.00 81 1013.0
20200713123502 65 262 0.0 0.0 0.00 0.06 0.00 83 1013.0
20200713122953 65 273 0.0 0.0 0.00 0.06 0.00 84 1012.6
20200713122450 65 231 0.0 0.0 0.00 0.06 0.00 85 1012.6
20200713121950 65 262 0.0 0.0 0.00 0.06 0.00 85 1012.6
20200713121449 65 254 0.0 0.0 0.00 0.06 0.00 85 1012.6
20200713120944 64 255 0.0 0.0 0.00 0.06 0.00 85 1012.6
20200713120445 64 260 0.0 0.0 0.00 0.10 0.00 86 1012.6
20200713115943 64 258 0.0 0.0 0.00 0.12 0.00 86 1012.6
20200713115440 64 252 0.0 0.0 0.00 0.12 0.00 87 1012.6
20200713114933 64 255 0.0 0.0 0.00 0.12 0.00 87 1012.6
20200713114433 64 227 0.0 0.0 0.00 0.12 0.00 87 1012.6
20200713113932 64 252 0.0 0.0 0.00 0.12 0.00 87 1012.6
20200713113430 64 252 0.0 0.0 0.00 0.12 0.00 87 1012.6
20200713112923 64 253 0.0 0.0 0.00 0.12 0.00 88 1012.6
20200713112421 64 255 0.0 0.0 0.00 0.12 0.00 88 1012.6
20200713111919 64 280 0.0 0.0 0.00 0.12 0.00 88 1012.3
20200713111422 63 253 0.0 0.0 0.00 0.12 0.00 88 1012.3
20200713110914 63 254 0.0 0.0 0.00 0.12 0.00 89 1012.3
20200713110415 63 254 0.0 0.0 0.00 0.12 0.00 89 1012.3
20200713105915 63 254 0.0 0.0 0.00 0.12 0.00 89 1012.3
20200713105415 63 254 0.0 0.0 0.00 0.12 0.00 89 1011.9
20200713104904 62 252 0.0 0.0 0.00 0.12 0.00 89 1011.9
20200713104403 62 252 0.0 0.0 0.00 0.12 0.00 89 1011.9
20200713103901 62 247 0.0 0.0 0.00 0.12 0.00 89 1011.5
20200713103400 62 252 0.0 0.0 0.00 0.12 0.00 89 1011.9
20200713102853 62 252 0.0 0.0 0.00 0.12 0.00 89 1011.9
20200713102352 62 252 0.0 0.0 0.00 0.12 0.00 89 1011.9
20200713101850 62 253 0.0 0.0 0.00 0.12 0.00 88 1011.5
20200713101351 62 253 0.0 0.0 0.00 0.12 0.00 89 1011.5
20200713100848 62 279 0.0 0.0 0.00 0.12 0.00 88 1011.5
20200713100344 62 262 0.0 0.0 0.00 0.12 0.00 88 1011.5
20200713095845 62 252 0.0 0.0 0.00 0.12 0.00 88 1011.2
20200713095342 62 256 0.0 0.0 0.00 0.12 0.00 88 1011.2
20200713094833 62 252 0.0 0.0 0.00 0.12 0.00 87 1011.2
20200713094333 62 228 0.0 0.0 0.00 0.12 0.00 87 1011.2
20200713093832 62 218 0.0 0.0 0.00 0.12 0.00 87 1011.2
20200713093331 61 252 0.0 0.0 0.00 0.12 0.00 88 1011.2
20200713092824 61 252 0.0 0.0 0.00 0.12 0.00 87 1011.2
20200713092321 61 231 0.0 0.0 0.00 0.12 0.00 87 1011.2
20200713091820 61 244 0.0 0.0 0.00 0.12 0.00 87 1011.2
20200713091321 61 238 0.0 0.0 0.00 0.12 0.00 87 1011.2
20200713090812 61 281 0.0 0.0 0.00 0.12 0.00 87 1011.2
20200713090312 60 301 0.0 0.0 0.00 0.12 0.00 87 1010.9
20200713085810 60 270 0.0 0.0 0.00 0.12 0.00 87 1010.9
20200713085309 61 270 0.0 0.0 0.00 0.12 0.00 87 1010.9
20200713084806 61 269 0.0 0.0 0.00 0.12 0.00 86 1010.9
20200713084305 61 252 0.0 0.0 0.00 0.12 0.00 86 1010.9
20200713083803 61 252 0.0 0.0 0.00 0.12 0.00 86 1010.9
20200713083303 61 252 0.0 0.0 0.00 0.12 0.00 86 1010.9
20200713082754 62 252 0.0 0.0 0.00 0.12 0.00 86 1010.5
20200713082253 62 252 0.0 0.0 0.00 0.12 0.00 86 1010.5
20200713081753 62 252 0.0 0.0 0.00 0.12 0.00 86 1010.5
20200713081252 62 252 0.0 0.0 0.00 0.12 0.00 85 1010.9
20200713080743 62 252 0.0 0.0 0.00 0.12 0.00 85 1010.5
20200713080242 62 252 0.0 0.0 0.00 0.12 0.00 85 1010.9
20200713075741 62 241 0.0 0.0 0.00 0.12 0.00 85 1010.9
20200713075241 61 252 0.0 0.0 0.00 0.12 0.00 86 1010.9
20200713074732 61 252 0.0 0.0 0.00 0.12 0.00 86 1010.9
20200713074232 61 252 0.0 0.0 0.00 0.12 0.00 86 1010.9
20200713073729 61 251 0.0 0.0 0.00 0.12 0.00 86 1010.9
20200713073229 61 252 0.0 0.0 0.00 0.12 0.00 86 1010.9
20200713072728 62 252 0.0 0.0 0.00 0.12 0.00 86 1010.9
20200713072225 62 252 0.0 0.0 0.00 0.12 0.00 86 1010.9
20200713071725 62 252 0.0 0.0 0.00 0.12 0.00 86 1010.9
20200713071226 62 252 0.0 0.0 0.00 0.12 0.00 86 1010.9
20200713070713 62 256 0.0 0.0 0.00 0.12 0.00 85 1010.9
20200713070212 62 260 0.0 0.0 0.00 0.12 0.00 85 1011.2
20200713065715 62 261 0.0 0.0 0.00 0.12 0.00 85 1010.9
20200713065211 62 260 0.0 0.0 0.00 0.12 0.00 85 1010.9
20200713064703 62 276 0.0 0.0 0.00 0.12 0.00 85 1011.2
20200713064203 62 255 0.0 0.0 0.00 0.12 0.00 85 1011.2
20200713063704 62 264 0.0 0.0 0.00 0.12 0.00 85 1011.2
20200713063201 62 269 0.0 0.0 0.00 0.12 0.00 85 1011.2
20200713062652 62 253 0.0 0.0 0.00 0.12 0.00 85 1011.2
20200713062151 62 253 0.0 0.0 0.00 0.12 0.00 85 1011.5
20200713061657 62 253 0.0 0.0 0.00 0.12 0.00 85 1011.2
20200713061154 62 255 0.0 0.0 0.00 0.12 0.00 85 1011.2
20200713060650 62 252 0.0 0.0 0.00 0.12 0.00 84 1011.5
20200713060145 62 252 0.0 0.0 0.00 0.12 0.00 84 1011.5
20200713055643 62 252 0.0 0.0 0.00 0.12 0.00 84 1011.5
20200713055144 62 252 0.0 0.0 0.00 0.12 0.00 84 1011.5
20200713054634 62 246 0.0 0.0 0.00 0.12 0.00 84 1011.5
20200713054134 62 231 0.0 0.0 0.00 0.12 0.00 84 1011.5
20200713053632 62 252 0.0 0.0 0.00 0.12 0.00 84 1011.2
20200713053135 62 260 0.0 0.0 0.00 0.12 0.00 84 1011.5
20200713052624 62 277 0.0 0.0 0.00 0.12 0.00 83 1011.5
20200713052122 62 265 0.0 0.0 0.00 0.12 0.00 83 1011.5
20200713051621 62 252 0.0 0.0 0.00 0.12 0.00 83 1011.5
20200713051121 63 247 0.0 0.0 0.00 0.12 0.00 83 1011.2
20200713050612 63 252 0.0 0.0 0.00 0.12 0.00 83 1011.2
20200713050111 63 252 0.0 0.0 0.00 0.12 0.00 83 1011.2
20200713045610 63 252 0.0 0.0 0.00 0.12 0.00 82 1011.2
20200713045109 63 252 0.0 0.0 0.00 0.12 0.00 82 1011.2
20200713044606 63 252 0.0 0.0 0.00 0.12 0.00 82 1011.2
20200713044105 63 251 0.0 0.0 0.00 0.12 0.00 81 1011.2
20200713043603 63 200 0.0 0.0 0.00 0.12 0.00 81 1011.2
20200713043104 63 252 0.0 0.0 0.00 0.12 0.00 81 1011.2
20200713042555 64 251 0.0 2.0 0.00 0.12 0.00 80 1010.9
20200713042053 64 252 0.0 2.0 0.00 0.12 0.00 80 1010.9
20200713041553 64 200 0.0 2.0 0.00 0.12 0.00 79 1010.9
20200713041052 63 252 0.0 0.0 0.00 0.12 0.00 78 1010.9
20200713040543 63 249 0.0 0.0 0.00 0.12 0.00 78 1010.9
20200713040041 63 252 0.0 0.0 0.00 0.12 0.00 77 1010.9
20200713035542 63 252 0.0 0.0 0.00 0.12 0.12 77 1010.9
20200713035040 64 252 0.0 0.0 0.00 0.12 0.12 76 1010.9
20200713034532 63 252 0.0 0.0 0.00 0.12 0.12 75 1010.5
20200713034033 63 252 0.0 0.0 0.00 0.12 0.12 75 1010.5
20200713033529 63 252 0.0 0.0 0.00 0.12 0.12 74 1010.5
20200713033028 64 252 0.0 0.0 0.00 0.12 0.12 75 1010.5
20200713032527 64 252 0.0 0.0 0.00 0.12 0.12 74 1010.5
20200713032023 64 247 0.0 0.0 0.00 0.12 0.12 73 1010.5
20200713031522 64 199 0.0 0.0 0.00 0.12 0.12 73 1010.5
20200713031024 64 213 0.0 0.0 0.00 0.12 0.12 72 1010.5
20200713030513 64 212 0.0 0.0 0.00 0.12 0.12 72 1010.5
20200713030012 64 204 0.0 0.0 0.00 0.12 0.12 72 1010.5
20200713025513 64 252 0.0 0.0 0.00 0.12 0.12 72 1010.5
20200713025011 64 254 0.0 0.0 0.00 0.12 0.12 71 1010.5
20200713024512 64 252 0.0 0.0 0.00 0.12 0.12 71 1010.5
20200713024001 64 250 0.0 0.0 0.00 0.12 0.12 71 1010.5
20200713023500 64 252 0.0 0.0 0.00 0.12 0.12 70 1010.2
20200713022958 64 252 0.0 0.0 0.00 0.12 0.12 70 1010.2
20200713022456 64 252 0.0 0.0 0.00 0.12 0.12 69 1010.2
20200713021956 64 252 0.0 0.0 0.00 0.12 0.12 69 1010.2
20200713021453 64 252 0.0 0.0 0.00 0.12 0.12 68 1010.2
20200713020953 64 252 0.0 0.0 0.00 0.12 0.12 69 1010.2
20200713020444 64 252 0.0 0.0 0.00 0.12 0.12 68 1010.2
20200713015942 64 252 0.0 0.0 0.00 0.12 0.12 68 1010.2
20200713015443 64 252 0.0 0.0 0.00 0.12 0.12 68 1009.8
20200713014944 64 253 0.0 0.0 0.00 0.12 0.12 68 1010.2
20200713014434 64 253 0.0 0.0 0.00 0.12 0.12 68 1010.2
20200713013933 64 253 0.0 0.0 0.00 0.12 0.12 68 1010.2
20200713013431 64 252 0.0 0.0 0.00 0.12 0.12 67 1010.2
20200713012929 65 252 0.0 0.0 0.00 0.12 0.12 67 1009.8
20200713012422 65 257 0.0 0.0 0.00 0.12 0.12 67 1009.8
20200713011921 65 271 0.0 0.0 0.00 0.12 0.12 66 1009.8
20200713011419 65 304 0.0 0.0 0.00 0.12 0.12 66 1009.8
20200713010920 65 278 0.0 2.0 0.00 0.12 0.12 65 1009.8
20200713010414 65 1 0.0 2.0 0.00 0.12 0.12 65 1009.8
20200713005913 65 252 0.0 2.0 0.00 0.12 0.12 65 1010.2
20200713005413 65 206 0.0 0.0 0.00 0.12 0.12 65 1010.2
20200713004912 65 152 0.0 0.0 0.00 0.12 0.12 66 1010.2
20200713004405 66 259 0.0 0.0 0.00 0.12 0.12 65 1009.8
20200713003903 66 264 0.0 2.0 0.00 0.12 0.12 65 1009.8
20200713003403 66 299 0.0 2.0 0.00 0.12 0.12 64 1009.8
20200713002901 66 265 0.0 0.0 0.00 0.12 0.12 64 1009.8
20200713002355 66 252 0.0 0.0 0.00 0.12 0.12 64 1009.8
20200713001851 66 306 0.0 0.0 0.00 0.12 0.12 65 1009.8
20200713001351 66 306 0.0 2.0 0.00 0.12 0.12 65 1009.8
20200713000850 66 295 0.0 5.0 0.00 0.12 0.12 65 1009.8
20200713000345 66 262 0.0 10.0 0.00 0.12 0.12 65 1009.8
20200712235844 66 281 0.0 10.0 0.00 0.12 0.12 65 1009.8
20200712235344 66 253 0.0 0.0 0.00 0.12 0.12 65 1009.5
20200712234842 67 199 0.0 2.0 0.00 0.12 0.12 65 1009.5
20200712234334 67 201 0.0 2.0 0.00 0.12 0.12 65 1009.5
20200712233833 67 224 0.0 2.0 0.00 0.12 0.12 64 1009.5
20200712233331 67 221 0.0 2.0 0.00 0.12 0.12 62 1009.5
20200712232830 67 250 0.0 2.0 0.00 0.12 0.12 60 1009.2
20200712232324 67 252 0.0 2.0 0.00 0.12 0.12 58 1009.2
20200712231821 0 0.0 0.0 0.00 0.12 0.12 1009.2
20200712231321 0 0.0 0.0 0.00 0.12 0.12 1008.7
20200712230824 0 0.0 0.0 0.00 0.12 0.12 1008.7
20200712230308 0 0.0 0.0 0.00 0.12 0.12 1008.4
20200712225800 0 0.0 0.0 0.00 0.12 0.12 1008.4
20200712225248 68 226 0.0 2.0 0.00 0.12 0.12 56 1008.7
20200712224743 68 226 0.0 2.0 0.00 0.12 0.12 56 1008.7
20200712224240 68 133 1.0 2.0 0.00 0.12 0.12 57 1008.7
20200712223738 68 133 1.0 2.0 0.00 0.12 0.12 57 1008.7
20200712223240 69 253 0.0 2.0 0.00 0.12 0.12 57 1008.7
20200712222736 69 253 0.0 2.0 0.00 0.12 0.12 57 1009.2
20200712222237 69 255 0.0 2.0 0.00 0.12 0.12 59 1009.2
20200712221735 69 211 1.0 2.0 0.00 0.12 0.12 56 1008.7
20200712221233 69 211 1.0 2.0 0.00 0.12 0.12 56 1008.7
20200712220725 70 185 3.0 5.0 0.00 0.12 0.12 55 1008.4
20200712220227 70 185 3.0 5.0 0.00 0.12 0.12 55 1008.4
20200712215726 70 185 3.0 5.0 0.00 0.12 0.12 55 1008.4
20200712215224 70 185 3.0 5.0 0.00 0.12 0.12 55 1008.0
20200712214718 68 204 0.0 5.0 0.00 0.12 0.12 57 1008.4
20200712214218 68 230 0.0 5.0 0.00 0.12 0.12 57 1008.4
20200712213715 68 230 0.0 7.0 0.00 0.12 0.12 56 1008.4
20200712213214 68 194 0.0 7.0 0.00 0.12 0.12 58 1008.4
20200712212706 68 253 0.0 7.0 0.02 0.12 0.12 58 1008.4
20200712212205 68 221 3.0 7.0 0.03 0.12 0.12 58 1008.4
20200712211705 68 258 1.0 10.0 0.06 0.12 0.12 61 1008.4
20200712211204 68 185 2.0 10.0 0.06 0.12 0.12 63 1008.4
20200712210659 68 211 1.0 5.0 0.06 0.12 0.12 63 1008.4
20200712210158 68 231 1.0 5.0 0.06 0.12 0.12 61 1008.4
20200712205655 67 217 0.0 7.0 0.06 0.12 0.12 61 1008.4
20200712205154 67 217 0.0 7.0 0.06 0.12 0.12 59 1008.4
20200712204647 66 216 0.0 5.0 0.06 0.12 0.12 61 1008.7
20200712204145 66 254 0.0 5.0 0.06 0.12 0.12 64 1008.4
20200712203645 66 258 0.0 5.0 0.06 0.12 0.12 65 1008.7
20200712203144 65 254 0.0 10.0 0.06 0.12 0.12 65 1008.4
20200712202635 70 183 4.0 17.0 0.04 0.10 0.10 66 1008.4
20200712202134 71 231 5.0 20.0 0.02 0.08 0.08 65 1008.4
20200712201634 73 229 11.0 20.0 0.00 0.06 0.06 65 1008.0
20200712201132 73 250 12.0 15.0 0.00 0.06 0.06 43 1008.0
20200712200629 75 267 6.0 12.0 0.00 0.06 0.06 47 1007.7
20200712200128 76 258 1.0 12.0 0.00 0.06 0.06 48 1007.7
20200712195625 76 223 10.0 12.0 0.00 0.06 0.06 51 1007.7
20200712195124 76 261 4.0 7.0 0.00 0.06 0.06 50 1007.4
20200712194619 77 256 3.0 7.0 0.00 0.06 0.06 49 1007.4
20200712194115 77 263 6.0 7.0 0.00 0.06 0.06 47 1007.7
20200712193614 77 272 0.0 10.0 0.00 0.06 0.06 48 1007.7
20200712193115 77 259 2.0 10.0 0.00 0.06 0.06 48 1007.7
20200712192610 78 262 0.0 5.0 0.00 0.06 0.06 46 1007.7
20200712192108 78 185 4.0 5.0 0.00 0.06 0.06 45 1007.7
20200712191610 78 185 4.0 12.0 0.00 0.06 0.06 45 1007.7
20200712191105 78 202 4.0 12.0 0.00 0.06 0.06 44 1007.7
20200712190558 80 172 6.0 7.0 0.00 0.06 0.06 43 1007.4
20200712190102 80 172 6.0 7.0 0.00 0.06 0.06 43 1007.4
20200712185556 80 252 2.0 7.0 0.00 0.06 0.06 40 1007.7
20200712185055 79 182 6.0 7.0 0.00 0.06 0.06 45 1007.7
20200712184549 79 182 6.0 12.0 0.00 0.06 0.06 45 1007.7
20200712184047 79 224 7.0 12.0 0.00 0.06 0.06 46 1007.4
20200712183548 78 208 9.0 12.0 0.00 0.06 0.06 47 1007.7
20200712183047 78 192 9.0 12.0 0.00 0.06 0.06 46 1007.7
20200712182541 78 218 6.0 10.0 0.00 0.06 0.06 48 1007.7
20200712182040 78 228 5.0 10.0 0.00 0.06 0.06 46 1007.7
20200712181540 78 219 5.0 7.0 0.00 0.06 0.06 47 1007.7
20200712181038 78 215 2.0 10.0 0.00 0.06 0.06 48 1008.0
20200712180530 77 214 0.0 10.0 0.00 0.06 0.06 50 1007.7
20200712180029 77 184 3.0 10.0 0.00 0.06 0.06 51 1008.0
20200712175528 77 252 0.0 10.0 0.00 0.06 0.06 51 1008.0
20200712175026 77 252 2.0 10.0 0.00 0.06 0.06 49 1008.0
20200712174520 78 207 3.0 10.0 0.00 0.06 0.06 49 1008.0
20200712174018 78 207 6.0 7.0 0.00 0.06 0.06 48 1008.0
20200712173516 78 255 2.0 7.0 0.00 0.06 0.06 48 1008.0
20200712173016 78 189 0.0 7.0 0.00 0.06 0.06 47 1008.0
20200712172514 81 220 1.0 7.0 0.00 0.06 0.06 46 1008.0
20200712172010 82 207 2.0 10.0 0.00 0.07 0.06 46 1008.0
20200712171510 82 207 2.0 10.0 0.00 0.09 0.06 45 1008.0
20200712171007 82 256 3.0 7.0 0.00 0.10 0.06 40 1008.0
20200712170500 80 252 0.0 5.0 0.00 0.10 0.06 42 1008.0
20200712165959 80 249 0.0 7.0 0.00 0.11 0.06 38 1008.4
20200712165457 80 283 5.0 10.0 0.00 0.12 0.06 44 1008.4
20200712164959 80 185 3.0 10.0 0.00 0.13 0.06 48 1008.4
20200712164453 79 253 0.0 5.0 0.00 0.15 0.06 49 1008.7
20200712163952 79 263 3.0 10.0 0.00 0.15 0.06 47 1008.4
20200712163451 79 257 3.0 10.0 0.00 0.15 0.06 47 1008.7
20200712162951 79 190 0.0 5.0 0.00 0.15 0.06 47 1008.7
20200712162442 77 240 0.0 7.0 0.00 0.15 0.06 52 1008.7
20200712161940 77 202 3.0 7.0 0.00 0.15 0.06 53 1008.7
20200712161441 77 253 0.0 5.0 0.00 0.15 0.06 51 1008.7
20200712160944 77 255 1.0 5.0 0.00 0.15 0.06 50 1008.7
20200712160429 77 198 0.0 10.0 0.00 0.15 0.06 51 1008.7
20200712155929 77 256 4.0 10.0 0.00 0.15 0.06 47 1008.7
20200712155427 77 189 0.0 7.0 0.00 0.15 0.06 47 1008.7
20200712154925 77 258 2.0 7.0 0.00 0.15 0.06 51 1008.7
20200712154423 74 216 0.0 7.0 0.00 0.15 0.06 54 1009.2
20200712153920 74 253 0.0 7.0 0.00 0.15 0.06 55 1009.2
20200712153420 73 222 0.0 5.0 0.00 0.15 0.06 55 1008.7
20200712152920 73 212 0.0 5.0 0.00 0.15 0.06 55 1009.2
20200712152410 73 218 1.0 5.0 0.00 0.15 0.06 56 1009.2
20200712151909 73 251 0.0 7.0 0.00 0.15 0.06 55 1009.2
20200712151410 73 204 2.0 7.0 0.00 0.15 0.06 55 1009.2
20200712150909 74 222 3.0 7.0 0.00 0.15 0.06 55 1009.2
20200712150359 74 207 2.0 5.0 0.00 0.15 0.06 55 1009.2
20200712145900 74 187 2.0 5.0 0.00 0.15 0.06 54 1009.2
20200712145357 74 196 2.0 5.0 0.00 0.15 0.06 55 1009.2
20200712144855 74 257 0.0 5.0 0.00 0.15 0.06 55 1009.2
20200712144353 73 252 0.0 5.0 0.00 0.15 0.06 56 1009.2
20200712143851 73 210 0.0 5.0 0.00 0.15 0.06 56 1009.2
20200712143349 73 258 1.0 5.0 0.00 0.15 0.06 56 1008.7
20200712142851 73 252 0.0 5.0 0.00 0.15 0.06 56 1008.7
20200712142342 71 231 0.0 2.0 0.00 0.15 0.06 56 1009.2
20200712141839 71 229 0.0 5.0 0.00 0.15 0.06 58 1008.7
20200712141341 71 206 2.0 5.0 0.00 0.15 0.06 58 1009.2
20200712140838 72 230 0.0 2.0 0.00 0.15 0.06 55 1009.2
20200712140337 71 220 0.0 2.0 0.00 0.15 0.06 55 1009.2
20200712135833 71 215 0.0 5.0 0.00 0.15 0.06 55 1009.2